Portada
METAR-TAF:

METAR-TAF

Aeroports :

Tottori, Japó

latitud: 35-32N, longitud: 134-10E, altitud: 15 m

Observació

L'informe es va fer fa 32 minuts, a les 08:00 UTC
Vent 5 kt del Est
Temperatura 14°C
Humitat 72%
Pressió 1019 hPa
Visibilitat 10 km o més
Escasses núvols a una alçada de 6000 ft
Cel ennuvolat

METAR: RJOR 120800Z 09005KT 9999 FEW060 BKN/// 14/09 Q1019

Hora: 17:32 (08:32 UTC)


TAF: manca

Observacions i pronòstics meteorològics de més de 4000 aeroports (METAR i TAF).

Les estacions disponibles són els punts grocs i vermells al mapa.

Posi el ratolí al punt desitjat per veure el nom de l'estació.

Feu clic per veure les observacions i els pronòstics meteorològics.

Per canviar el mapa: feu clic els botons verds amb una creu de color negre per apropar; al botó verd amb un guió per allunyar la imatge; o en les fletxes verdes per a mapes adjacents.


METAR-TAF: